Regional Weather Roundup
Issued by NWS Upton, NY

Current Version | Previous Version | Graphics & Text | Print | Product List | Glossary Off
Versions: 1 2 3 4 5 6 7 8 9 10 11 12 13 14 15 16 17 18 19 20 21 22 23 24 25 26 27 28 29 30 31 32 33 34 35 36 37 38 39 40 41 42 43 44 45 46 47 48 49 50

000
ASUS41 KOKX 301918
RWROKX

REGIONAL WEATHER ROUNDUP
NATIONAL WEATHER SERVICE NEW YORK NY
300 PM EDT SAT MAY 30 2015

NOTE: "FAIR" INDICATES FEW OR NO CLOUDS BELOW 12,000 FEET WITH NO
SIGNIFICANT WEATHER AND/OR OBSTRUCTIONS TO VISIBILITY.

NYZ071-072-176-178-NJZ106-104-302000-
NEW YORK CITY METRO AREA


CITY           SKY/WX    TMP DP  RH WIND       PRES   REMARKS
CENTRAL PARK   SUNNY     84  64  50 VRB7      30.14F
LAGUARDIA APRT MOSUNNY   82  63  52 S22G29    30.12F
KENNEDY INTL   MOSUNNY   77  64  64 S21G33    30.14F
NEWARK/LIBERTY PTSUNNY   84  66  54 SE10      30.10F
BRNX BOT. GARD   N/A     79  63  57 SE3       30.12F
TETERBORO      MOSUNNY   84  65  52 S9G17     30.10F
$$

NYZ177-179-078>081-302000-
LONG ISLAND NEW YORK

CITY           SKY/WX    TMP DP  RH WIND       PRES   REMARKS
FARMINGDALE    SUNNY     78  65  63 S22       30.16F
ISLIP          MOSUNNY   76  64  66 S16G23    30.14F
SHIRLEY        SUNNY     75  64  68 S18       30.17F
WESTHAMPTON    SUNNY     76  64  66 S12G18    30.18F
MONTAUK POINT    N/A     72  63  73 S8G17     30.19F
$$

NYZ052-065-067-302000-
HUDSON VALLEY

CITY           SKY/WX    TMP DP  RH WIND       PRES   REMARKS
WHITE PLAINS   MOSUNNY   81  66  60 S12       30.13F
NEWBURGH       PTSUNNY   82  70  65 W12G17    30.11F
MONTGOMERY     PTSUNNY   84  68  58 SW12      30.08F
POUGHKEEPSIE   PTSUNNY   86  65  49 SW10G18   30.07F
ALBANY         TSTM      81  67  62 S14G20    30.00F
$$

NJZ001-105-106-008-010-013-015-019>022-104-302000-
NEW JERSEY

CITY           SKY/WX    TMP DP  RH WIND       PRES   REMARKS
NEWARK/LIBERTY PTSUNNY   84  66  54 SE10      30.10F
TETERBORO      MOSUNNY   84  65  52 S9G17     30.10F
CALDWELL       MOSUNNY   85  65  51 SW9       30.10F
MORRISTOWN     PTSUNNY   90  68  48 SW10G20   30.11F HX  93
SOMERVILLE     MOSUNNY   86  65  49 S9G18     30.08F
SUSSEX         PTSUNNY   83  65  54 VRB7      30.11F
ANDOVER          N/A     84  66  54 SW12G18   30.11F
TRENTON        PTSUNNY   85  64  49 S13       30.11F
MILLVILLE      SUNNY     82  66  58 S10G22    30.15F
ATLANTIC CITY  SUNNY     80  64  58 S17G23    30.17F
WRIGHTSTOWN    PTSUNNY   89  64  42 SW15      30.09F HX  90
TOMS RIVER     MOSUNNY  N/A N/A N/A S15G23    30.13F
BELMAR         MOSUNNY   82  64  54 S15G22    30.13F
$$

PAZ047>061-062-071-302000-
EASTERN PENNSYLVANIA

CITY           SKY/WX    TMP DP  RH WIND       PRES   REMARKS
PHILADELPHIA   MOSUNNY   86  66  51 S13       30.12F
ALLENTOWN      MOSUNNY   88  64  44 S16G23    30.09F
SCRANTON       PTSUNNY   84  64  50 S10G21    30.07F
$$

CTZ002-004>006-009-010-012-RIZ004-006-007-MAZ004-011-015-302000-
SOUTHERN NEW ENGLAND
 IN CT

CITY           SKY/WX    TMP DP  RH WIND       PRES   REMARKS
BRADLEY INTL   MOSUNNY   86  63  45 S22       30.08F
HARTFORD       SUNNY     84  61  45 S13G26    30.09F
DANBURY        PTSUNNY   80  65  59 S10       30.13F
WTRBRY/OXFORD  MOSUNNY   81  64  57 S12G18    30.14F
BRIDGEPORT     SUNNY     80  64  58 S15       30.13F
MERIDEN        SUNNY     83  62  49 S17G25    30.12F
NEW HAVEN      MOSUNNY   78  64  61 SW10      30.14F
CHESTER        FAIR      79  64  61 S16G22    30.16F
GROTON         SUNNY     70  62  76 S8        30.16F
WILLIMANTIC    MOSUNNY   83  60  45 S13G23    30.13F

 IN RI

CITY           SKY/WX    TMP DP  RH WIND       PRES   REMARKS
PROVIDENCE     MOSUNNY   82  59  45 SW18G26   30.14F
BLOCK ISLAND   MOSUNNY   70  61  73 SW18      30.19F
WESTERLY       SUNNY     72  63  73 S16       30.17F

 IN MA

CITY           SKY/WX    TMP DP  RH WIND       PRES   REMARKS
BOSTON         MOSUNNY   87  59  38 SW16      30.07F
WORCESTER      MOSUNNY   82  61  48 SW13G23   30.12F
WESTFIELD      MOSUNNY   87  63  44 S21       30.07F
PROVINCETOWN   SUNNY     75  63  64 SW21G26   30.14F
NANTUCKET      MOSUNNY   68  62  81 S16       30.20F
$$

ANZ330-335-338-340-345-350-353-355-302000-
COASTAL MARINE OBSERVATIONS


STATION/POSITION TIME  SKY/WX   TEMP    WIND        PRES    VSBY  WAVE
                                AIR SEA DIR/SP/G                  HT/PER
                 (UTC)          (F)     (DEG/KT/KT) (MB)    (MI)  (FT/S)
NY HARB ENTRANCE 1850            66 62  180/ 17/ 19 1020.2          3/ 9
4S FIRE IS       1803               61                N/A           3/ 9
20S FIRE ISLAND  1850            63 60  180/ 12/ 14 1021.6          3/ 8
GREAT SOUTH BAY  1800            67 71  230/ 12/ 16   N/A
23SW MTP         1850            62 58  200/ 10/ 12 1022.2          3/ 9
HUDSON CANYON    NOT AVBL
KINGS POINT      1800            73 59  190/ 11/ 12 1020.3
CENTRAL LI SOUND 1845            69 62  210/ 12/ 14   N/A
EASTERN LI SOUND 1800            61     180/  4/  4   N/A
ROBBINS REEF     1800            73     160/ 13/ 14 1019.4
$$


>>>>>>>>>>>>>>>>>>>>>>>>>>>> KEY <<<<<<<<<<<<<<<<<<<<<<<<<<<
>                                                          <
>     SKY/WX - SKY CONDITION/PRESENT WEATHER               <
>     TMP    - TEMPERATURE IN FAHRENHEIT                   <
>     DP     - DEWPOINT IN FAHRENHEIT                      <
>     RH     - RELATIVE HUMIDITY IN PERCENT                <
>     WIND   - DIRECTION AND SPEED IN MPH                  <
>     PRES   - MEAN SEA LEVEL PRESSURE IN INCHES OF HG     <
>     WCI    - WIND CHILL INDEX                            <
>     VSB    - VISIBILITY IN MILES                         <
>     HX     - HEAT INDEX                                  <
>     TC     - TEMPERATURE IN CELSIUS                      <
>     VRB    - VARIABLE WIND DIRECTION                     <
>                                                          <
>>>>>>>>>>>>>>>>>>>>>>>>>>>> KEY <<<<<<<<<<<<<<<<<<<<<<<<<<<





USA.gov is the U.S. government's official web portal to all federal, state and local government web resources and services.